TimeMST,TemperatureF,Dew PointF,Humidity,Sea Level PressureIn,VisibilityMPH,Wind Direction,Wind SpeedMPH,Gust SpeedMPH,PrecipitationIn,Events,Conditions,WindDirDegrees,DateUTC
12:20 AM,6.8,5.0,92,30.08,1.8,SSW,6.9,-,N/A,,Clear,200,2012-12-10 07:20:00
12:29 AM,6.8,5.0,92,30.07,4.0,SSW,6.9,-,N/A,,Clear,200,2012-12-10 07:29:00
12:53 AM,3.9,1.9,91,30.17,10.0,South,8.1,-,N/A,,Clear,180,2012-12-10 07:53:00
1:53 AM,1.0,-0.9,91,30.19,10.0,South,9.2,-,N/A,,Clear,170,2012-12-10 08:53:00
2:45 AM,1.4,-0.4,92,29.99,1.8,South,9.2,-,0.00,,Clear,180,2012-12-10 09:45:00
2:53 AM,1.0,-2.0,87,30.17,1.5,SSE,10.4,-,0.00,,Clear,160,2012-12-10 09:53:00
2:56 AM,-0.4,-2.2,92,29.98,3.0,SSE,10.4,-,0.00,Snow,Light Snow,150,2012-12-10 09:56:00
3:53 AM,1.9,-0.9,88,30.16,10.0,SSE,11.5,-,0.00,,Clear,160,2012-12-10 10:53:00
4:53 AM,-0.9,-4.0,87,30.17,10.0,South,8.1,-,0.00,,Clear,190,2012-12-10 11:53:00
5:50 AM,-5.8,-7.6,92,29.94,2.0,NE,4.6,-,0.00,,Clear,40,2012-12-10 12:50:00
5:53 AM,-4.0,-7.1,87,30.19,2.5,NE,3.5,-,0.00,,Clear,40,2012-12-10 12:53:00
6:02 AM,-2.2,-4.0,92,29.95,3.0,North,4.6,-,N/A,,Clear,10,2012-12-10 13:02:00
6:53 AM,-2.0,-5.1,87,30.19,10.0,North,9.2,-,N/A,,Clear,360,2012-12-10 13:53:00
7:53 AM,1.0,-2.9,83,30.20,10.0,NNW,3.5,-,N/A,,Clear,330,2012-12-10 14:53:00
8:53 AM,9.0,3.9,80,30.16,10.0,North,6.9,-,0.00,,Clear,10,2012-12-10 15:53:00
9:53 AM,14.0,7.0,74,30.14,10.0,SSW,4.6,-,N/A,,Clear,210,2012-12-10 16:53:00
10:53 AM,15.1,5.0,64,30.14,10.0,South,10.4,-,N/A,,Clear,190,2012-12-10 17:53:00
11:53 AM,19.0,5.0,54,30.09,10.0,South,6.9,-,N/A,,Clear,180,2012-12-10 18:53:00
12:53 PM,21.0,6.1,53,30.04,10.0,South,10.4,-,N/A,,Clear,180,2012-12-10 19:53:00
1:53 PM,21.9,12.9,68,30.03,10.0,South,9.2,-,N/A,,Clear,180,2012-12-10 20:53:00
2:53 PM,25.0,15.1,66,30.01,10.0,SE,4.6,-,N/A,,Clear,140,2012-12-10 21:53:00
3:53 PM,26.1,16.0,66,29.99,10.0,South,6.9,-,N/A,,Clear,190,2012-12-10 22:53:00
4:53 PM,19.9,12.0,71,30.04,10.0,Variable,3.5,-,N/A,,Clear,0,2012-12-10 23:53:00
5:53 PM,19.9,7.0,57,30.09,10.0,Variable,5.8,-,N/A,,Clear,0,2012-12-11 00:53:00
6:53 PM,19.0,7.0,59,30.09,10.0,WNW,10.4,-,N/A,,Clear,300,2012-12-11 01:53:00
7:53 PM,24.1,9.0,53,30.04,10.0,NW,26.5,-,N/A,,Clear,310,2012-12-11 02:53:00
8:53 PM,21.9,9.0,58,30.02,10.0,NW,24.2,-,N/A,,Clear,310,2012-12-11 03:53:00
9:53 PM,19.9,7.0,57,30.03,10.0,NW,16.1,-,N/A,,Clear,310,2012-12-11 04:53:00
10:53 PM,19.0,6.1,57,30.04,10.0,NW,10.4,-,N/A,,Clear,310,2012-12-11 05:53:00
11:53 PM,17.1,5.0,59,30.04,10.0,NE,8.1,-,N/A,,Clear,40,2012-12-11 06:53:00